Wind_Speed
12 11 11 10 11 11 11 12 12 12 13 13 12 12 12 12 12 11 11 11 11 11 11 11 12 12 11 11 11 12 12 11 11 10 11 10 10 10 10 10 11 12 12
12 12 11 11 11 12 12 12 13 13 13 13 13 13 13 13 12 12 12 12 12 12 12 12 12 12 12 12 12 12 12 12 12 11 11 11 11 11 11 11 12 12 13
13 13 13 12 12 12 12 12 12 13 13 14 14 13 13 13 13 13 13 12 12 13 13 13 13 13 13 12 12 12 12 12 12 12 11 11 12 11 11 11 12 13 13
13 13 14 13 13 12 12 13 13 13 13 14 14 14 14 13 13 13 13 13 13 13 14 14 14 14 14 13 13 13 13 12 13 13 12 11 11 11 11 12 12 12 12
14 15 15 14 13 13 13 13 14 14 14 14 14 14 14 14 14 14 14 14 14 14 14 14 14 15 15 15 14 14 14 13 14 14 13 12 12 12 13 13 13 14 13
15 15 14 14 14 14 14 15 15 15 15 15 15 15 15 15 15 16 16 16 15 15 15 15 15 15 15 16 15 15 15 15 15 15 14 14 14 13 14 14 14 15 15
16 15 15 15 15 15 16 16 16 16 16 16 16 17 16 16 17 17 17 17 16 16 16 16 16 16 16 16 16 16 15 16 16 16 15 14 14 14 14 15 15 15 15
17 17 17 16 16 16 16 16 17 17 17 17 17 17 17 17 18 18 18 17 17 17 17 17 17 16 17 17 17 17 17 16 17 16 15 15 15 15 15 16 16 16 15
19 19 18 18 18 18 18 17 18 18 18 18 18 18 18 18 18 18 18 18 18 18 18 19 18 17 17 17 17 17 17 17 17 17 16 16 17 16 16 16 17 16 15
20 20 20 20 20 19 19 18 19 19 20 20 20 20 20 20 19 19 19 19 19 19 19 20 19 19 19 18 18 18 18 18 18 18 18 18 18 18 17 16 16 16 16
22 22 22 22 21 21 21 20 21 21 21 20 21 21 21 21 20 20 19 20 20 20 20 20 20 19 19 19 19 19 19 19 20 19 19 19 19 18 18 17 17 17 17
23 23 23 23 23 23 22 22 22 22 21 22 22 22 22 21 21 22 21 21 21 21 21 21 21 21 21 20 20 20 20 21 21 21 20 20 19 19 19 18 18 18 18
24 24 24 24 24 24 24 23 23 23 23 23 22 22 22 22 22 23 23 22 21 21 21 21 22 22 22 22 21 22 22 22 22 21 21 21 20 20 20 20 19 18 18
26 26 26 26 25 26 26 25 25 25 24 23 23 23 23 23 24 24 24 24 23 22 23 23 23 23 23 23 23 23 22 22 23 22 22 22 21 21 21 20 20 19 19
27 27 27 27 27 27 27 27 27 27 26 25 24 24 25 24 24 25 25 25 25 24 24 24 24 24 24 24 23 23 23 23 23 23 24 23 23 22 22 21 20 20 20
28 28 28 28 28 28 29 29 29 28 28 27 26 26 25 25 25 25 26 26 26 25 25 25 26 26 25 25 24 23 23 23 23 23 24 24 23 23 22 22 22 21 21
29 29 29 29 29 30 30 30 30 30 29 29 28 26 26 27 26 26 25 26 27 26 26 26 26 26 26 25 25 25 24 24 24 24 24 23 23 23 23 23 23 22 22
29 30 30 30 30 30 30 30 30 30 30 30 30 28 28 28 27 27 27 27 27 27 27 26 26 26 26 26 26 26 25 25 26 25 25 24 24 24 24 24 23 23 23
30 30 30 30 30 30 30 30 31 31 31 30 31 30 29 29 29 28 28 28 28 28 28 27 27 26 26 26 26 26 26 26 26 25 25 25 24 24 25 25 24 24 24
31 31 30 30 30 30 30 30 31 31 31 31 31 31 30 30 30 29 29 28 28 28 28 28 28 27 26 26 27 26 26 25 25 25 25 25 25 25 25 26 26 26 26
31 31 30 30 30 30 30 30 30 30 30 31 31 31 30 29 29 29 29 29 28 28 28 28 28 28 27 27 27 26 26 25 25 25 25 25 26 26 26 26 27 27 27
31 31 30 30 29 29 29 29 30 30 30 31 31 31 30 30 29 29 29 29 28 27 27 28 29 28 28 27 26 26 27 27 27 27 26 25 26 26 26 26 27 27 27
30 31 30 30 30 29 29 29 30 30 31 31 31 31 31 30 30 29 30 30 29 29 29 28 28 28 28 27 27 26 27 27 27 27 26 26 26 26 27 27 27 28 28
30 30 29 29 30 29 30 30 30 30 30 30 30 30 30 30 30 29 29 30 30 30 29 28 28 28 28 27 27 27 27 27 26 27 27 27 27 27 27 27 28 28 28
30 30 30 30 30 30 30 30 30 30 30 30 30 29 29 29 29 29 29 29 30 29 29 29 29 28 28 27 27 27 27 26 26 27 27 27 27 27 27 27 28 28 28
30 30 30 30 30 29 29 29 30 30 30 29 29 29 29 29 29 29 29 28 29 28 27 27 28 28 27 27 28 27 27 27 27 27 27 27 27 27 27 27 28 27 27
Wind_Direction
296 296 297 296 294 293 291 286 286 287 287 286 288 287 286 285 281 278 274 274 272 267 262 260 263 264 267 271 276 279 280 284 289 289 282 277 273 272 272 266 264 262 264
291 293 294 295 295 295 293 290 288 287 288 288 288 288 286 285 281 277 276 275 272 269 267 265 266 270 272 274 276 279 282 284 288 288 286 278 272 271 272 271 270 265 267
291 290 291 291 292 294 294 293 292 291 290 290 287 284 284 284 282 278 276 275 271 269 268 268 268 272 274 276 279 281 281 283 285 287 288 283 275 271 271 274 275 271 268
290 290 290 289 289 290 292 294 294 292 291 291 289 285 283 284 282 279 277 273 271 269 269 268 270 273 275 276 279 280 281 283 283 283 282 283 281 274 271 274 273 275 276
290 290 289 287 286 287 288 292 292 293 293 291 288 286 284 282 283 280 278 274 271 268 267 268 271 272 274 274 277 279 279 280 281 282 281 281 280 279 277 276 275 277 279
288 290 290 286 284 284 286 288 289 291 292 290 288 285 284 282 281 279 276 273 270 268 267 269 271 272 273 273 274 277 278 278 280 282 282 279 278 277 278 277 277 275 275
285 284 287 287 285 284 284 286 287 287 288 288 287 284 283 282 281 279 276 274 272 269 269 269 271 271 272 272 273 275 276 277 279 280 281 279 277 278 275 272 274 273 273
285 284 284 285 284 284 284 286 286 285 284 284 286 285 284 283 280 279 276 276 272 269 269 270 270 270 271 271 273 274 274 276 278 279 279 278 278 278 276 275 274 272 272
283 284 286 285 283 283 283 284 284 286 284 283 283 281 280 281 279 278 275 275 274 270 269 270 270 270 271 272 272 274 274 274 275 277 278 278 278 278 276 277 274 271 271
280 283 286 286 284 282 282 282 283 285 284 283 282 280 279 279 278 277 277 276 275 273 271 272 273 272 271 273 274 274 274 274 274 273 274 275 276 275 273 273 272 270 270
279 280 282 283 283 282 281 281 282 283 283 284 282 279 277 277 277 275 277 278 276 274 272 271 272 272 270 272 274 273 272 273 272 272 273 273 273 272 271 272 271 272 271
278 278 279 279 281 281 281 280 280 281 281 282 281 279 276 275 277 275 275 276 276 274 273 271 270 271 271 272 274 274 273 273 271 271 272 273 271 271 270 271 271 272 271
278 278 277 277 278 279 279 278 278 280 280 280 280 278 277 276 276 276 276 276 276 275 274 273 271 271 270 270 271 274 274 272 269 268 269 269 270 270 269 269 269 270 270
280 278 276 276 276 278 277 276 276 277 278 278 279 277 276 276 275 275 276 276 276 275 275 274 274 273 271 270 271 272 271 269 268 267 267 268 268 268 267 268 269 270 269
279 279 278 277 276 277 277 276 275 276 275 276 277 276 274 274 276 273 274 275 275 274 274 273 274 275 275 274 271 270 268 268 269 267 267 268 267 266 265 266 268 268 269
280 280 279 278 277 276 276 275 274 274 273 273 274 274 272 272 274 274 275 275 274 274 274 273 274 274 274 275 273 272 271 270 270 268 267 267 267 266 265 265 268 268 267
281 280 280 279 278 277 276 274 273 273 273 271 271 272 271 272 273 274 276 275 274 273 273 273 273 273 272 273 273 273 272 271 270 268 267 265 266 267 267 266 268 266 266
282 281 281 281 279 278 277 276 275 274 272 272 271 271 269 271 273 274 275 275 274 272 272 272 272 272 272 271 271 272 271 271 269 268 266 266 266 267 267 266 267 266 267
282 281 281 282 281 279 279 278 276 275 274 273 271 271 271 271 271 272 273 273 273 272 271 271 271 271 271 270 270 270 270 269 268 266 266 267 267 268 267 266 266 267 267
280 280 281 281 281 280 279 278 277 276 275 274 272 271 271 272 272 272 273 272 272 270 270 270 270 270 270 269 269 269 269 268 267 266 265 266 267 268 269 267 266 266 265
280 280 280 282 282 281 279 277 276 276 276 274 273 272 272 272 271 272 273 272 272 270 270 270 270 270 269 269 269 270 269 268 268 267 266 266 267 268 269 268 266 265 265
281 281 280 282 282 281 280 277 276 276 277 276 273 272 272 272 272 271 272 272 273 272 272 271 270 269 268 268 269 270 270 269 268 267 266 266 267 267 269 269 267 267 265
282 281 280 281 281 281 280 278 277 276 277 276 272 271 271 272 272 271 271 272 273 274 273 272 270 269 269 267 268 269 270 269 269 267 266 267 268 268 269 270 269 268 267
281 282 281 282 283 282 282 281 279 277 277 277 274 272 272 271 271 272 271 273 275 276 273 272 269 269 269 268 268 268 269 269 269 268 268 268 268 269 269 269 270 269 267
281 281 282 283 282 282 282 281 280 279 278 277 275 271 270 270 270 272 272 274 274 275 273 270 269 268 268 268 268 269 268 268 270 269 269 269 269 269 269 269 269 269 268
283 282 282 283 283 282 281 280 281 280 278 277 276 273 269 269 270 272 272 273 274 274 272 271 269 267 267 268 270 269 268 268 268 268 269 270 270 270 270 269 267 267 268
Height
5855 5855 5854 5853 5853 5852 5851 5851 5850 5850 5850 5849 5849 5848 5848 5848 5848 5848 5848 5848 5849 5849 5849 5849 5850 5850 5850 5851 5851 5851 5851 5851 5850 5850 5850 5850 5850 5850 5850 5850 5850 5851 5851
5852 5852 5851 5851 5850 5850 5849 5849 5848 5848 5847 5847 5846 5846 5846 5846 5846 5846 5846 5846 5846 5846 5846 5847 5847 5847 5848 5848 5848 5849 5849 5848 5848 5848 5848 5847 5847 5847 5847 5848 5848 5848 5848
5850 5849 5849 5848 5848 5847 5847 5846 5845 5845 5844 5844 5843 5843 5843 5843 5843 5843 5843 5843 5843 5843 5844 5844 5844 5845 5845 5846 5846 5846 5846 5846 5846 5845 5845 5845 5845 5845 5844 5845 5845 5845 5845
5847 5846 5846 5845 5845 5844 5844 5843 5843 5842 5841 5841 5840 5840 5840 5840 5840 5840 5840 5840 5840 5840 5840 5841 5841 5842 5842 5842 5843 5843 5843 5843 5843 5843 5842 5842 5842 5842 5842 5842 5842 5842 5842
5844 5843 5843 5842 5842 5841 5841 5840 5840 5839 5838 5838 5837 5837 5837 5837 5837 5837 5836 5837 5837 5837 5837 5837 5838 5838 5839 5839 5839 5840 5840 5840 5840 5840 5839 5839 5839 5839 5839 5839 5839 5838 5838
5840 5840 5839 5839 5838 5838 5838 5837 5837 5836 5835 5835 5834 5834 5834 5834 5834 5833 5833 5833 5833 5833 5834 5834 5834 5835 5835 5835 5836 5836 5836 5836 5836 5836 5836 5836 5836 5836 5835 5835 5835 5835 5835
5836 5836 5836 5835 5835 5834 5834 5834 5833 5832 5832 5831 5831 5830 5830 5830 5830 5830 5829 5829 5829 5830 5830 5830 5831 5831 5831 5832 5832 5832 5833 5833 5833 5833 5833 5832 5832 5832 5832 5831 5831 5831 5831
5832 5832 5832 5831 5831 5831 5830 5830 5829 5828 5828 5827 5827 5827 5826 5826 5826 5826 5826 5825 5825 5825 5826 5826 5827 5827 5827 5828 5828 5829 5829 5829 5829 5829 5829 5828 5828 5828 5828 5827 5827 5827 5827
5828 5828 5827 5827 5826 5826 5826 5825 5825 5824 5824 5823 5823 5823 5822 5822 5821 5821 5821 5821 5821 5821 5821 5822 5822 5823 5823 5823 5824 5824 5824 5825 5824 5824 5824 5824 5824 5824 5823 5823 5823 5823 5823
5823 5823 5822 5822 5822 5821 5821 5820 5820 5819 5819 5819 5818 5817 5817 5817 5817 5817 5817 5816 5816 5816 5816 5817 5817 5818 5818 5818 5819 5819 5819 5819 5820 5820 5820 5820 5819 5819 5819 5819 5819 5819 5818
5818 5818 5817 5817 5816 5816 5816 5815 5815 5814 5813 5813 5813 5812 5812 5812 5811 5812 5812 5812 5811 5811 5811 5812 5812 5812 5812 5813 5813 5813 5814 5814 5814 5815 5815 5815 5815 5815 5815 5814 5814 5814 5814
5812 5812 5812 5811 5811 5810 5810 5810 5809 5809 5808 5807 5807 5806 5806 5806 5806 5806 5806 5806 5806 5806 5806 5806 5807 5807 5807 5807 5807 5807 5808 5808 5808 5809 5809 5809 5809 5810 5809 5809 5809 5809 5808
5806 5805 5805 5805 5805 5804 5804 5804 5803 5802 5802 5801 5801 5800 5800 5800 5800 5800 5800 5800 5800 5800 5800 5800 5800 5801 5801 5801 5801 5801 5801 5802 5802 5803 5803 5803 5803 5804 5804 5804 5804 5803 5803
5799 5799 5798 5798 5798 5798 5797 5797 5796 5796 5795 5795 5794 5794 5794 5794 5794 5794 5794 5793 5794 5794 5794 5794 5794 5794 5794 5794 5794 5795 5795 5795 5796 5796 5796 5797 5797 5798 5798 5798 5798 5798 5798
5792 5791 5791 5791 5790 5790 5790 5789 5789 5789 5788 5788 5788 5787 5787 5787 5787 5787 5787 5787 5787 5787 5788 5787 5787 5787 5787 5787 5787 5787 5788 5789 5789 5789 5790 5790 5791 5791 5792 5792 5792 5792 5792
5785 5784 5783 5783 5782 5782 5782 5781 5781 5780 5780 5780 5781 5780 5780 5780 5780 5780 5780 5779 5779 5780 5780 5780 5780 5780 5780 5780 5780 5780 5781 5781 5782 5782 5783 5784 5784 5784 5785 5785 5786 5786 5786
5777 5776 5775 5775 5774 5774 5773 5773 5772 5772 5772 5772 5772 5772 5772 5772 5772 5772 5772 5772 5772 5772 5772 5772 5772 5773 5772 5773 5773 5773 5774 5774 5775 5775 5776 5776 5777 5778 5778 5779 5779 5779 5780
5768 5768 5767 5766 5765 5765 5764 5763 5763 5763 5763 5763 5763 5764 5764 5764 5764 5764 5764 5764 5764 5764 5764 5765 5765 5765 5765 5765 5765 5766 5766 5767 5767 5768 5769 5769 5770 5770 5771 5771 5772 5772 5773
5760 5759 5758 5757 5756 5756 5755 5754 5754 5754 5754 5754 5755 5755 5755 5755 5756 5756 5756 5756 5756 5756 5756 5756 5757 5757 5757 5757 5758 5758 5758 5759 5760 5760 5761 5762 5762 5763 5763 5764 5764 5765 5765
5751 5750 5749 5748 5747 5747 5746 5745 5745 5745 5745 5745 5746 5746 5747 5747 5747 5747 5747 5747 5747 5748 5748 5748 5748 5749 5749 5749 5750 5750 5751 5751 5752 5752 5753 5754 5754 5755 5756 5756 5757 5757 5757
5743 5742 5741 5740 5739 5738 5737 5736 5736 5736 5736 5736 5737 5737 5738 5738 5738 5739 5739 5738 5738 5739 5739 5739 5740 5740 5741 5741 5742 5742 5743 5743 5744 5744 5745 5746 5746 5747 5747 5748 5748 5748 5749
5734 5733 5732 5731 5730 5729 5728 5728 5727 5727 5727 5727 5728 5728 5729 5729 5729 5730 5730 5730 5730 5730 5730 5730 5731 5732 5732 5733 5733 5733 5734 5735 5736 5737 5737 5738 5738 5739 5739 5739 5739 5739 5740
5726 5725 5724 5723 5722 5721 5720 5719 5718 5718 5718 5718 5718 5719 5719 5720 5720 5720 5721 5721 5721 5721 5721 5721 5722 5723 5723 5724 5725 5725 5726 5726 5727 5727 5728 5729 5730 5730 5730 5730 5730 5731 5731
5718 5716 5715 5714 5713 5713 5712 5711 5709 5709 5709 5709 5709 5709 5710 5710 5711 5711 5712 5712 5712 5712 5712 5713 5713 5713 5714 5715 5716 5716 5717 5717 5718 5718 5719 5720 5721 5721 5721 5721 5721 5721 5722
5709 5707 5707 5706 5705 5704 5703 5702 5701 5700 5700 5699 5699 5700 5700 5701 5702 5702 5703 5703 5703 5703 5703 5703 5704 5704 5705 5706 5707 5707 5708 5709 5710 5710 5710 5711 5712 5712 5713 5712 5712 5712 5711
5700 5699 5698 5697 5696 5695 5694 5693 5692 5691 5691 5690 5690 5690 5691 5691 5692 5692 5693 5693 5694 5694 5694 5694 5695 5696 5696 5697 5698 5698 5699 5700 5701 5701 5701 5702 5702 5703 5704 5704 5703 5702 5702